Flag for U.S.A. Weather past 2 weeks in Sandpoint, Idaho, U.S.A.

Now
50 °F

Clear.


Feels Like: 50 °F
Forecast: 49 / 74 °F
Wind: No wind

Location: Sandpoint Airport

Current Time: Sep 18, 2014 at 1:42:16 AM

Latest Report: Sep 18, 2014 at 1:15 AM


Visibility: 10 mi

Pressure: 29.68 "Hg

Humidity: 100%

Dew point: 50 °F

Location of SandpointLocation

Historic Weather in Sandpoint — Graph

°F

Sandpoint temperature yesterday

Maximum temperature yesterday: 77 °F (at 1:55 PM)
Minimum temperature yesterday: 43 °F (at 6:15 AM)
Average temperature yesterday: 59 °F

Past Weeks' High & Low Weather Summary

 TemperatureHumidityPressure
High79 °F (Sep 7, 3:35 PM)100% (Sep 3, 12:15 AM)30.50 "Hg (Sep 3, 12:15 AM)
Low28 °F (Sep 12, 5:15 AM)22% (Sep 15, 3:35 PM)29.67 "Hg (Sep 3, 12:15 AM)
Average54 °F70%30.04 "Hg
* Reported Sep 3 12:15 AM — Sep 18 12:55 AM, Sandpoint, Weather by CustomWeather, © 2014

Note: Actual official high and low records may vary slightly from our data, if they occured in-between our weather recording intervals... More about our weather records

Advertising

Sandpoint weather history for previous 24 hours

 ConditionsComfort  
Time TempWeatherWind HumidityBarometerVisibility
12:55 AM
Sep 18
50 °FClear.No wind100%29.68 "Hg10 mi
12:35 AM50 °FClear.No wind100%29.69 "Hg10 mi
12:15 AM52 °FClear.3 mph100%29.68 "Hg10 mi
11:55 PM
Sep 17
52 °FClear.No wind100%29.68 "Hg10 mi
11:35 PM52 °FClear.No wind100%29.69 "Hg10 mi
11:15 PM54 °FClear.No wind94%29.69 "Hg10 mi
10:55 PM54 °FClear.No wind94%29.70 "Hg10 mi
10:35 PM54 °FClear.No wind94%29.70 "Hg10 mi
10:15 PM54 °FClear.No wind94%29.70 "Hg10 mi
9:55 PM54 °FClear.No wind88%29.70 "Hg10 mi
9:35 PM55 °FClear.No wind88%29.70 "Hg10 mi
9:15 PM57 °FClear.3 mph82%29.70 "Hg10 mi
8:55 PM55 °FClear.No wind88%29.71 "Hg10 mi
8:35 PM57 °FClear.No wind82%29.71 "Hg10 mi
8:15 PM57 °FClear.5 mph82%29.71 "Hg10 mi
7:55 PM59 °FClear.No wind82%29.71 "Hg10 mi
7:35 PM61 °FSunny.No wind77%29.71 "Hg10 mi
7:15 PM63 °FSunny.No wind83%29.71 "Hg10 mi
6:55 PM64 °FSunny.No wind78%29.71 "Hg10 mi
6:35 PM64 °FSunny.No wind73%29.71 "Hg10 mi
6:15 PM70 °FSunny.No wind57%29.71 "Hg10 mi
5:55 PM70 °FSunny.No wind53%29.71 "Hg10 mi
5:35 PM72 °FSunny.No wind53%29.71 "Hg10 mi
5:15 PM73 °FSunny.No wind44%29.72 "Hg10 mi
4:55 PM72 °FSunny.No wind44%29.72 "Hg10 mi
4:15 PM73 °FSunny.No wind36%29.73 "Hg10 mi
3:55 PM77 °FSunny.3 mph34%29.74 "Hg10 mi
3:35 PM77 °FSunny.No wind34%29.74 "Hg10 mi
3:15 PM77 °FSunny.3 mph32%29.75 "Hg10 mi
2:55 PM75 °FSunny.3 mph41%29.76 "Hg10 mi
2:35 PM73 °FSunny.3 mph47%29.76 "Hg10 mi
2:15 PM77 °FSunny.6 mph34%29.78 "Hg10 mi
1:55 PM77 °FSunny.3 mph32%29.78 "Hg10 mi
1:35 PM75 °FSunny.No wind36%29.79 "Hg10 mi
1:15 PM73 °FSunny.3 mph38%29.80 "Hg10 mi
12:55 PM73 °FSunny.3 mph38%29.80 "Hg10 mi
12:35 PM73 °FSunny.No wind38%29.81 "Hg10 mi
12:15 PM72 °FSunny.3 mph44%29.81 "Hg10 mi
11:55 AM72 °FSunny.3 mph44%29.82 "Hg10 mi
11:15 AM70 °FSunny.5 mph43%29.83 "Hg10 mi
9:15 AM59 °FSunny.No wind63%29.86 "Hg10 mi
8:55 AM55 °FSunny.No wind77%29.87 "Hg10 mi
8:35 AM54 °FSunny.No wind82%29.87 "Hg10 mi
8:15 AM54 °FSunny.No wind82%29.87 "Hg10 mi
7:55 AM50 °FSunny.No wind100%29.87 "Hg10 mi
7:35 AM46 °FSunny.No wind100%29.87 "Hg10 mi
7:15 AM45 °FClear.No wind100%29.87 "Hg7 mi
6:55 AM45 °FClear.No wind100%29.87 "Hg10 mi
6:35 AM43 °FClear.No wind100%29.87 "Hg10 mi
6:15 AM43 °FClear.No wind100%29.87 "Hg10 mi
5:15 AM45 °FClear.No wind100%29.86 "Hg10 mi
4:55 AM45 °FClear.No wind100%29.86 "Hg10 mi
4:35 AM45 °FClear.No wind100%29.86 "Hg10 mi
4:15 AM45 °FClear.No wind100%29.86 "Hg10 mi
3:55 AM46 °FClear.No wind100%29.86 "Hg10 mi
3:35 AM46 °FClear.No wind100%29.87 "Hg10 mi
3:15 AM46 °FClear.No wind100%29.87 "Hg10 mi
2:55 AM46 °FClear.No wind100%29.87 "Hg10 mi
2:15 AM46 °FClear.No wind100%29.87 "Hg10 mi
1:55 AM48 °FClear.No wind100%29.87 "Hg10 mi
1:15 AM50 °FClear.No wind100%29.86 "Hg10 mi
Weather by CustomWeather, © 2014

See weather overviewHow to use our weather pages